Location: Newark
(40.7360°N, 74.1730°W)
Time: 01:19:23
(UTC-04:00)

Amateur Radio Satellites - All Passes

Search period start: 29 March 2017 00:49
Search period end: 30 March 2017 00:49
Location: Newark, 40.7360°N, 74.1730°W

Satellite Date Start Highest point End Downlink Frequencies (MHz)
Time Altitude Azimuth
BUGSAT 1 29 Mar 00:49:30 00:52:48 22° 95° (E) 00:56:02 437.445
RS-15 29 Mar 01:00:13 01:03:33 12° 268° (W) 01:06:52 29.354- 29.394
DX 1 29 Mar 01:01:34 01:05:54 89° 247° (WSW) 01:10:19 434.975-435.025
O/OREOS (USA 219) 29 Mar 01:06:46 01:08:04 11° 50° (NE) 01:09:23 437.305
Oscar 19 29 Mar 01:07:59 01:10:08 12° 90° (E) 01:12:16 437.125/150
AIST 2D 29 Mar 01:16:51 01:19:16 18° 291° (WNW) 01:21:40 435.315
50 SAT 29 Mar 01:26:58 01:29:41 21° 264° (W) 01:32:24 437.505
NANOSAT C BR1 29 Mar 01:31:03 01:34:52 34° 290° (WNW) 01:38:39 145.865
VELOX 1 29 Mar 01:35:03 01:37:54 17° 267° (W) 01:40:47 145.980
UKube-1 29 Mar 01:36:32 01:40:43 51° 259° (W) 01:44:57 .
EO-79 29 Mar 01:37:31 01:41:06 27° 291° (WNW) 01:44:39 145.935-145.965
Gurwin Techsat 1B 29 Mar 01:42:24 01:45:35 16° 91° (E) 01:48:46 435.225
Tancredo 1 29 Mar 01:49:01 01:51:59 34° 29° (NNE) 01:54:57 437.200
ISS 29 Mar 02:00:54 02:04:02 39° 30° (NNE) 02:07:09 437.550
POLYITAN 1 29 Mar 02:07:40 02:09:50 14° 296° (WNW) 02:11:59 437.675
QB50P2 29 Mar 02:13:05 02:14:31 12° 298° (WNW) 02:15:56 145.880/145.840
DUCHIFAT 1 29 Mar 02:20:54 02:22:33 12° 297° (WNW) 02:24:12 145.980
BUGSAT 1 29 Mar 02:24:33 02:28:08 28° 291° (WNW) 02:31:40 437.445
MOZHAYETS 4 29 Mar 02:36:50 02:40:10 20° 66° (ENE) 02:43:30
BEESAT 29 Mar 02:42:02 02:46:42 57° 73° (ENE) 02:51:24 436.000
O/OREOS (USA 219) 29 Mar 02:43:33 02:48:11 90° 68° (ENE) 02:52:47 437.305
Oscar 19 29 Mar 02:44:48 02:49:58 76° 287° (WNW) 02:55:09 437.125/150
AO-7 29 Mar 02:56:50 03:01:09 15° 89° (E) 03:05:27 .
ITUPSAT 1 29 Mar 02:59:58 03:04:46 85° 76° (ENE) 03:09:35 437.325
ITAMSAT 1 29 Mar 03:00:29 03:02:56 13° 90° (E) 03:05:22 435.822/435.867
Gurwin Techsat 1B 29 Mar 03:20:41 03:25:57 63° 287° (WNW) 03:31:11 435.225
Tancredo 1 29 Mar 03:25:17 03:28:02 27° 225° (SW) 03:30:47 437.200
KKS-1 29 Mar 03:35:26 03:38:29 18° 65° (ENE) 03:41:33 437.445
CUBESAT XI-V 29 Mar 03:37:13 03:39:42 15° 63° (ENE) 03:42:10 437.345
ISS 29 Mar 03:37:38 03:40:22 24° 226° (SW) 03:43:06 437.550
STARS 29 Mar 04:04:14 04:07:00 16° 64° (ENE) 04:09:45 437.465
MOZHAYETS 4 29 Mar 04:12:42 04:17:02 40° 262° (W) 04:21:21
AO-85 29 Mar 04:13:19 04:15:44 15° 44° (NE) 04:18:10 145.980
BEESAT 29 Mar 04:22:09 04:24:49 15° 269° (W) 04:27:30 436.000
ITAMSAT 1 29 Mar 04:37:44 04:42:55 72° 286° (WNW) 04:48:03 435.822/435.867
AO-7 29 Mar 04:46:43 04:55:04 81° 108° (ESE) 05:03:22 .
M-CUBED/EXP-1 PRIME 29 Mar 05:05:38 05:07:24 13° 56° (ENE) 05:09:13 437.505
KKS-1 29 Mar 05:10:27 05:14:42 43° 261° (W) 05:19:00 437.445
CUBESAT XI-V 29 Mar 05:12:02 05:16:33 59° 260° (W) 05:21:06 437.345
STARS 29 Mar 05:38:39 05:42:56 48° 260° (W) 05:47:15 437.465
AO-85 29 Mar 05:52:34 05:56:25 55° 241° (WSW) 06:00:24 145.980
XW-2F 29 Mar 06:03:54 06:04:56 11° 91° (E) 06:05:58 145.980 - 146.000
LilacSat-2 29 Mar 06:09:27 06:11:36 15° 92° (E) 06:13:44 437.200
DOVE 4 29 Mar 06:14:55 06:19:36 31° 95° (E) 06:24:10 437.250
NUDT-PHONESAT 29 Mar 06:19:56 06:22:00 14° 92° (E) 06:24:03 437.300
NO-84 29 Mar 06:24:20 06:27:14 89° 295° (WNW) 06:30:05 435.350 FM
XW-2D 29 Mar 06:29:51 06:33:00 25° 96° (E) 06:36:07 145.860 - 145.880
KAITUO 1B 29 Mar 06:30:19 06:33:04 20° 94° (E) 06:35:48 145.475/437.950
BEESAT 3 29 Mar 06:31:36 06:35:26 40° 53° (NE) 06:39:12 437.485
XW-2B 29 Mar 06:35:45 06:39:03 28° 97° (E) 06:42:19 145.730 - 145.750
M-CUBED/EXP-1 PRIME 29 Mar 06:37:36 06:41:16 56° 255° (WSW) 06:45:17 437.505
AO-7 29 Mar 06:40:44 06:46:56 24° 307° (NW) 06:53:09 .
YUBILEINY 29 Mar 06:43:04 06:50:17 30° 83° (E) 06:57:28 435.215
XW-2C 29 Mar 06:45:52 06:49:25 39° 98° (E) 06:52:56 145.795 - 145.815
CUTE-I 29 Mar 06:47:46 06:52:46 39° 98° (E) 06:57:42 437.470
BEESAT 2 29 Mar 06:53:46 06:57:21 29° 50° (NE) 07:00:53 435.950
STRAND 1 29 Mar 07:12:17 07:17:20 59° 73° (ENE) 07:22:24 437.568
XW-2A 29 Mar 07:20:31 07:21:41 11° 92° (E) 07:22:50 145.665 - 145.685
XW-2F 29 Mar 07:35:45 07:39:20 46° 286° (WNW) 07:42:54 145.980 - 146.000
HO-68 29 Mar 07:37:08 07:43:10 28° 95° (E) 07:49:09 435.675
LilacSat-2 29 Mar 07:42:33 07:46:01 35° 288° (WNW) 07:49:27 437.200
DOVE 4 29 Mar 07:52:30 07:57:13 33° 291° (WNW) 08:01:49 437.250
NUDT-PHONESAT 29 Mar 07:52:42 07:56:03 34° 288° (WNW) 07:59:22 437.300
SEEDS 29 Mar 07:55:25 07:58:30 20° 94° (E) 08:01:35 437.485
KAITUO 1B 29 Mar 08:03:59 08:07:03 25° 290° (WNW) 08:10:08 145.475/437.950
NO-84 29 Mar 08:04:03 08:05:10 12° 336° (NNW) 08:06:18 435.350 FM
XW-2D 29 Mar 08:04:14 08:07:03 21° 291° (WNW) 08:09:52 145.860 - 145.880
CUTE 1.7 + AOD 2 29 Mar 08:07:12 08:11:13 41° 98° (E) 08:15:13 437.475
BEESAT 3 29 Mar 08:09:59 08:12:43 18° 249° (WSW) 08:15:26 437.485
XW-2B 29 Mar 08:10:25 08:13:02 18° 292° (WNW) 08:15:39 145.730 - 145.750
CUBEBUG 2 29 Mar 08:20:33 08:24:12 26° 95° (E) 08:27:45 437.445
XW-2C 29 Mar 08:21:17 08:23:16 14° 294° (WNW) 08:25:15 145.795 - 145.815
CUTE-I 29 Mar 08:28:10 08:32:36 27° 295° (WNW) 08:37:01 437.470
BEESAT 2 29 Mar 08:31:37 08:35:01 26° 247° (WSW) 08:38:25 435.950
YUBILEINY 29 Mar 08:37:57 08:46:31 58° 282° (WNW) 08:55:06 435.215
AO-73 29 Mar 08:42:33 08:44:41 14° 91° (E) 08:46:46 145.935
FO-29 29 Mar 08:47:48 08:52:01 16° 57° (ENE) 08:56:04 435.910
XW-2A 29 Mar 08:51:30 08:54:36 35° 287° (WNW) 08:57:41 145.665 - 145.685
STRAND 1 29 Mar 08:53:43 08:56:52 16° 269° (W) 09:00:02 437.568
PCSat 29 Mar 09:04:54 09:10:07 51° 113° (ESE) 09:15:22 145.827
AAUSAT CUBESAT 2 29 Mar 09:05:37 09:09:44 60° 100° (E) 09:13:51 437.432
TIGRISAT 29 Mar 09:14:43 09:18:08 20° 66° (ENE) 09:21:31 435.000
UWE-3 29 Mar 09:16:28 09:20:44 68° 101° (E) 09:24:52 435.000/436.395/437.385
PRISM 29 Mar 09:17:28 09:21:16 40° 72° (ENE) 09:25:08 437.425
HO-68 29 Mar 09:24:14 09:31:10 55° 292° (WNW) 09:38:05 435.675
UNISAT 6 29 Mar 09:25:12 09:29:08 28° 68° (ENE) 09:33:04 437.425
SEEDS 29 Mar 09:30:29 09:34:15 33° 289° (WNW) 09:38:01 437.485
Oscar 11 29 Mar 09:37:19 09:41:31 50° 99° (E) 09:45:42 .
CUTE 1.7 + AOD 2 29 Mar 09:43:59 09:46:43 17° 294° (WNW) 09:49:26 437.475
ZACube-1 29 Mar 09:50:24 09:54:38 86° 285° (WNW) 09:58:46 437.345
CUBEBUG 2 29 Mar 09:57:06 10:00:45 26° 292° (WNW) 10:04:18 437.445
DELFI C3 29 Mar 09:58:36 10:01:56 25° 95° (E) 10:05:14 145.870
AO-73 29 Mar 10:17:10 10:21:11 46° 287° (WNW) 10:25:08 145.935
FO-29 29 Mar 10:28:16 10:36:03 77° 73° (ENE) 10:43:17 435.910
AAUSAT CUBESAT 2 29 Mar 10:43:07 10:44:40 12° 296° (WNW) 10:46:13 437.432
YUBILEINY 29 Mar 10:44:06 10:45:31 10° 305° (NW) 10:46:57 435.215
NANOSAT C BR1 29 Mar 10:48:26 10:50:55 15° 64° (ENE) 10:53:22 145.865
PCSat 29 Mar 10:49:20 10:53:47 25° 312° (NW) 10:58:15 145.827
TIGRISAT 29 Mar 10:50:04 10:54:31 42° 262° (W) 10:58:56 435.000
PRISM 29 Mar 10:54:19 10:56:44 15° 267° (W) 10:59:10 437.425
EO-79 29 Mar 10:54:22 10:57:23 19° 66° (ENE) 11:00:25 145.935-145.965
RS-15 29 Mar 10:54:58 11:03:40 24° 99° (E) 11:12:31 29.354- 29.394
UWE-3 29 Mar 10:55:23 10:56:34 11° 298° (WNW) 10:57:45 435.000/436.395/437.385
UNISAT 6 29 Mar 11:01:37 11:05:44 30° 264° (W) 11:09:49 437.425
Oscar 11 29 Mar 11:14:49 11:17:13 15° 296° (WNW) 11:19:38 .
HO-68 29 Mar 11:16:18 11:17:19 10° 312° (NW) 11:18:21 435.675
POLYITAN 1 29 Mar 11:22:22 11:26:19 38° 71° (ENE) 11:30:18 437.675
QB50P2 29 Mar 11:27:00 11:31:05 46° 72° (ENE) 11:35:12 145.880/145.840
DELFI C3 29 Mar 11:33:23 11:36:37 24° 291° (WNW) 11:39:51 145.870
DUCHIFAT 1 29 Mar 11:34:24 11:38:24 42° 72° (ENE) 11:42:26 145.980
BUGSAT 1 29 Mar 11:39:20 11:42:03 17° 65° (ENE) 11:44:47 437.445
AIST 2D 29 Mar 11:49:44 11:53:11 51° 261° (W) 11:56:38 435.315
SPROUT 29 Mar 12:09:54 12:11:34 12° 90° (E) 12:13:14 437.525
LO-87 29 Mar 12:10:49 12:14:28 70° 284° (WNW) 12:18:04 145.935 - 145.965
FO-29 29 Mar 12:15:55 12:21:30 21° 269° (W) 12:26:54 435.910
NANOSAT C BR1 29 Mar 12:22:05 12:26:12 48° 261° (W) 12:30:21 145.865
Oscar 19 29 Mar 12:24:03 12:27:36 19° 63° (ENE) 12:31:09 437.125/150
ESTCUBE 1 29 Mar 12:24:29 12:29:01 72° 103° (ESE) 12:33:31 437.505/2401.250
EO-79 29 Mar 12:28:54 12:32:52 37° 262° (W) 12:36:53 145.935-145.965
50 SAT 29 Mar 12:50:58 12:53:46 22° 96° (E) 12:56:34 437.505
DX 1 29 Mar 12:51:08 12:53:53 16° 93° (E) 12:56:37 434.975-435.025
NO-84 29 Mar 12:57:59 13:01:00 48° 39° (NE) 13:04:16 435.350 FM
POLYITAN 1 29 Mar 12:59:16 13:02:14 18° 267° (W) 13:05:13 437.675
RS-15 29 Mar 13:02:26 13:14:27 89° 299° (WNW) 13:26:56 29.354- 29.394
Gurwin Techsat 1B 29 Mar 13:02:48 13:07:08 26° 65° (ENE) 13:11:28 435.225
QB50P2 29 Mar 13:04:38 13:07:06 15° 268° (W) 13:09:35 145.880/145.840
DUCHIFAT 1 29 Mar 13:11:36 13:14:15 16° 267° (W) 13:16:56 145.980
BUGSAT 1 29 Mar 13:13:01 13:17:03 43° 261° (W) 13:21:08 437.445
VELOX 1 29 Mar 13:23:15 13:27:44 88° 295° (WNW) 13:32:12 145.980
UKube-1 29 Mar 13:24:02 13:27:40 25° 96° (E) 13:31:16 .
SPROUT 29 Mar 13:43:37 13:47:50 57° 286° (WNW) 13:52:00 437.525
AO-7 29 Mar 13:55:13 14:01:31 25° 54° (NE) 14:07:48 .
Oscar 19 29 Mar 14:01:30 14:06:29 53° 260° (W) 14:11:31 437.125/150
ESTCUBE 1 29 Mar 14:03:32 14:05:12 12° 298° (WNW) 14:06:52 437.505/2401.250
ITAMSAT 1 29 Mar 14:17:32 14:21:28 22° 64° (ENE) 14:25:24 435.822/435.867
50 SAT 29 Mar 14:24:02 14:26:41 20° 291° (WNW) 14:29:21 437.505
SO-50 29 Mar 14:24:36 14:29:15 78° 121° (ESE) 14:33:52 436.795
DX 1 29 Mar 14:26:05 14:30:17 45° 288° (WNW) 14:34:27 434.975-435.025
NO-84 29 Mar 14:36:23 14:38:20 15° 233° (SW) 14:40:22 435.350 FM
Gurwin Techsat 1B 29 Mar 14:41:52 14:46:50 40° 262° (W) 14:51:51 435.225
BEESAT 29 Mar 14:43:52 14:46:27 14° 91° (E) 14:49:01 436.000
UKube-1 29 Mar 14:59:56 15:03:38 28° 292° (WNW) 15:07:18 .
ITUPSAT 1 29 Mar 15:01:26 15:05:06 22° 94° (E) 15:08:44 437.325
RS-15 29 Mar 15:18:06 15:28:49 34° 328° (NNW) 15:39:45 29.354- 29.394
O/OREOS (USA 219) 29 Mar 15:20:28 15:21:07 10° 96° (E) 15:21:46 437.305
AO-7 29 Mar 15:45:05 15:53:25 80° 253° (WSW) 16:01:47 .
ITAMSAT 1 29 Mar 15:55:33 16:00:34 48° 260° (W) 16:05:38 435.822/435.867
SO-50 29 Mar 16:07:23 16:10:15 16° 319° (NW) 16:13:06 436.795
MOZHAYETS 4 29 Mar 16:07:35 16:11:59 46° 99° (E) 16:16:21
BEESAT 29 Mar 16:19:54 16:24:35 58° 287° (WNW) 16:29:13 436.000
ITUPSAT 1 29 Mar 16:38:38 16:43:02 38° 290° (WNW) 16:47:25 437.325
YUBILEINY 29 Mar 16:54:11 16:58:19 14° 58° (ENE) 17:02:25 435.215
O/OREOS (USA 219) 29 Mar 16:55:18 16:59:49 73° 293° (WNW) 17:04:25 437.305
KKS-1 29 Mar 17:01:30 17:05:37 34° 98° (E) 17:09:41 437.445
CUBESAT XI-V 29 Mar 17:08:47 17:13:02 34° 97° (E) 17:17:17 437.345
XW-2D 29 Mar 17:12:10 17:13:59 13° 66° (ENE) 17:15:47 145.860 - 145.880
XW-2B 29 Mar 17:17:49 17:19:58 15° 67° (ENE) 17:22:07 145.730 - 145.750
DOVE 4 29 Mar 17:19:55 17:23:59 28° 67° (ENE) 17:28:16 437.250
XW-2C 29 Mar 17:27:29 17:30:14 19° 68° (ENE) 17:32:59 145.795 - 145.815
STARS 29 Mar 17:28:22 17:32:14 29° 97° (E) 17:36:04 437.465
RS-15 29 Mar 17:37:42 17:46:44 22° 3° (N) 17:55:41 29.354- 29.394
AO-7 29 Mar 17:43:10 17:47:21 15° 271° (W) 17:51:33 .
MOZHAYETS 4 29 Mar 17:45:44 17:48:47 18° 295° (WNW) 17:51:49
PCSat 29 Mar 17:52:59 17:58:05 39° 54° (NE) 18:03:09 145.827
HO-68 29 Mar 18:06:41 18:11:51 22° 57° (ENE) 18:17:00 435.675
CUTE-I 29 Mar 18:09:06 18:14:23 62° 73° (ENE) 18:19:43 437.470
XW-2F 29 Mar 18:15:47 18:19:33 74° 77° (ENE) 18:23:20 145.980 - 146.000
M-CUBED/EXP-1 PRIME 29 Mar 18:18:25 18:19:51 11° 94° (E) 18:21:16 437.505
LilacSat-2 29 Mar 18:23:23 18:27:12 81° 259° (W) 18:31:02 437.200
NUDT-PHONESAT 29 Mar 18:31:02 18:34:46 85° 259° (W) 18:38:30 437.300
KKS-1 29 Mar 18:38:29 18:41:57 22° 294° (WNW) 18:45:24 437.445
ISS 29 Mar 18:42:19 18:43:42 12° 129° (SE) 18:45:05 437.550
KAITUO 1B 29 Mar 18:42:50 18:46:32 59° 260° (W) 18:50:14 145.475/437.950
XW-2D 29 Mar 18:44:09 18:47:48 43° 262° (W) 18:51:25 145.860 - 145.880
CUBESAT XI-V 29 Mar 18:46:29 18:50:13 24° 293° (WNW) 18:53:57 437.345
SEEDS 29 Mar 18:47:50 18:49:58 14° 65° (ENE) 18:52:07 437.485
YUBILEINY 29 Mar 18:48:10 18:56:52 71° 80° (E) 19:05:34 435.215
XW-2B 29 Mar 18:50:17 18:53:50 38° 262° (W) 18:57:24 145.730 - 145.750
DOVE 4 29 Mar 18:57:18 19:01:32 32° 265° (W) 19:06:01 437.250
CUTE 1.7 + AOD 2 29 Mar 18:59:39 19:03:15 28° 70° (ENE) 19:06:51 437.475
XW-2C 29 Mar 19:00:57 19:04:15 28° 264° (W) 19:07:33 145.795 - 145.815
STARS 29 Mar 19:04:49 19:08:26 25° 293° (WNW) 19:12:03 437.465
CUBEBUG 2 29 Mar 19:17:57 19:21:44 24° 68° (ENE) 19:25:29 437.445
XW-2A 29 Mar 19:21:54 19:25:19 64° 75° (ENE) 19:28:44 145.665 - 145.685
STRAND 1 29 Mar 19:23:56 19:27:40 20° 93° (E) 19:31:22 437.568
PCSat 29 Mar 19:36:40 19:41:19 30° 251° (WSW) 19:45:56 145.827
AO-73 29 Mar 19:38:20 19:40:12 12° 63° (ENE) 19:42:04 145.935
M-CUBED/EXP-1 PRIME 29 Mar 19:50:02 19:54:43 78° 290° (WNW) 19:59:22 437.505
CUTE-I 29 Mar 19:51:31 19:54:50 16° 269° (W) 19:58:11 437.470
HO-68 29 Mar 19:51:41 19:58:49 76° 255° (WSW) 20:06:01 435.675
RS-15 29 Mar 19:52:58 20:04:15 38° 37° (NE) 20:15:07 29.354- 29.394
AAUSAT CUBESAT 2 29 Mar 19:55:20 19:59:05 36° 72° (ENE) 20:02:53 437.432
Tancredo 1 29 Mar 20:00:32 20:03:40 88° 311° (NW) 20:06:51 437.200
AO-85 29 Mar 20:06:19 20:10:35 47° 118° (ESE) 20:14:37 145.980
UWE-3 29 Mar 20:12:20 20:16:52 53° 73° (ENE) 20:21:19 435.000/436.395/437.385
ISS 29 Mar 20:16:30 20:19:45 71° 325° (NW) 20:23:00 437.550
SEEDS 29 Mar 20:21:11 20:25:13 50° 260° (W) 20:29:17 437.485
Oscar 11 29 Mar 20:31:39 20:35:36 37° 71° (ENE) 20:39:35 .
CUTE 1.7 + AOD 2 29 Mar 20:35:41 20:39:03 23° 265° (W) 20:42:26 437.475
DELFI C3 29 Mar 20:44:54 20:47:03 14° 65° (ENE) 20:49:12 145.870
ZACube-1 29 Mar 20:45:05 20:49:35 70° 76° (ENE) 20:54:03 437.345
YUBILEINY 29 Mar 20:46:21 20:52:46 24° 280° (W) 20:59:13 435.215
CUBEBUG 2 29 Mar 20:53:46 20:58:08 36° 263° (W) 21:02:28 437.445
STRAND 1 29 Mar 21:02:10 21:07:04 47° 289° (WNW) 21:11:54 437.568
AO-73 29 Mar 21:11:25 21:15:54 67° 259° (W) 21:20:20 145.935
SO-50 29 Mar 21:18:24 21:19:18 10° 35° (NE) 21:20:11 436.795
M-CUBED/EXP-1 PRIME 29 Mar 21:28:04 21:28:20 10° 306° (NW) 21:28:37 437.505
AAUSAT CUBESAT 2 29 Mar 21:31:59 21:34:40 17° 267° (W) 21:37:23 437.432
Tancredo 1 29 Mar 21:37:54 21:40:10 18° 342° (NNW) 21:42:27 437.200
HO-68 29 Mar 21:45:19 21:47:38 12° 273° (W) 21:49:56 435.675
AO-85 29 Mar 21:48:02 21:51:10 19° 314° (NW) 21:54:12 145.980
UWE-3 29 Mar 21:50:53 21:53:34 15° 269° (W) 21:56:14 435.000/436.395/437.385
ISS 29 Mar 21:54:26 21:56:41 17° 344° (NNW) 21:58:57 437.550
BEESAT 3 29 Mar 21:58:01 22:01:56 78° 121° (ESE) 22:05:55 437.485
RS-15 29 Mar 22:05:46 22:18:02 78° 243° (WSW) 22:29:41 29.354- 29.394
Oscar 11 29 Mar 22:08:49 22:11:51 19° 267° (W) 22:14:54 .
DELFI C3 29 Mar 22:17:45 22:21:28 42° 262° (W) 22:25:13 145.870
BEESAT 2 29 Mar 22:21:48 22:25:39 53° 118° (ESE) 22:29:34 435.950
ZACube-1 29 Mar 22:25:09 22:26:17 11° 271° (W) 22:27:23 437.345
PRISM 29 Mar 22:33:43 22:37:54 71° 103° (ESE) 22:42:03 437.425
TIGRISAT 29 Mar 22:41:52 22:45:59 39° 98° (E) 22:50:00 435.000
LO-87 29 Mar 22:46:26 22:49:50 41° 73° (ENE) 22:53:16 145.935 - 145.965
UNISAT 6 29 Mar 22:53:02 22:57:22 58° 100° (E) 23:01:36 437.425
SO-50 29 Mar 22:56:13 23:00:41 62° 55° (NE) 23:05:07 436.795
Tancredo 1 29 Mar 23:16:01 23:17:15 12° 2° (N) 23:18:32 437.200
AIST 2D 29 Mar 23:17:07 23:18:09 11° 91° (E) 23:19:12 435.315
ESTCUBE 1 29 Mar 23:23:25 23:27:49 62° 75° (ENE) 23:32:16 437.505/2401.250
FO-29 29 Mar 23:24:31 23:30:20 65° 101° (E) 23:35:36 435.910
ISS 29 Mar 23:32:38 23:34:10 13° 4° (N) 23:35:43 437.550
BEESAT 3 29 Mar 23:38:14 23:40:03 13° 319° (NW) 23:41:53 437.485
DX 1 29 Mar 23:47:00 23:49:22 15° 63° (ENE) 23:51:45 434.975-435.025
BEESAT 2 30 Mar 00:01:08 00:03:44 17° 316° (NW) 00:06:22 435.950
NANOSAT C BR1 30 Mar 00:06:55 00:10:27 25° 96° (E) 00:13:56 145.865
PRISM 30 Mar 00:11:42 00:12:34 11° 298° (WNW) 00:13:27 437.425
EO-79 30 Mar 00:13:39 00:17:30 33° 97° (E) 00:21:18 145.935-145.965
UKube-1 30 Mar 00:18:27 00:21:45 22° 66° (ENE) 00:25:03 .
TIGRISAT 30 Mar 00:19:21 00:22:21 18° 295° (WNW) 00:25:19 435.000
VELOX 1 30 Mar 00:19:48 00:24:11 78° 75° (ENE) 00:28:38 145.980
RS-15 30 Mar 00:21:12 00:28:17 18° 264° (W) 00:35:14 29.354- 29.394
LO-87 30 Mar 00:22:10 00:23:29 12° 269° (W) 00:24:49 145.935 - 145.965
UNISAT 6 30 Mar 00:31:27 00:33:33 13° 297° (WNW) 00:35:37 437.425
SPROUT 30 Mar 00:36:04 00:40:22 81° 257° (WSW) 00:44:43 437.525
SO-50 30 Mar 00:38:19 00:40:37 14° 251° (WSW) 00:42:54 436.795
